Terug naar catalogus

STARLINK-31487

ActiefCommunicatieVLEO
NORAD 59297·PAYLOAD·🇺🇸 United States

Gelanceerd Mar 24, 2024 vanaf Cape Canaveral Space Force Station

Loading…

Volgende Passages (komende 24 uur)

TLE

VersSource: CelesTrak SupGP

Epoch: Sep 14, 2026, 21:28 UTC

1 59297C 24056B   26257.89493056  .00030249  00000+0  10967-2 0  2574
2 59297  43.0000 242.3906 0001371 262.9234 265.4341 15.27530033    12

Volg STARLINK-31487 in realtime met AllMySat

Download on the App Store